Regional Weather Roundup
Issued by NWS

Home | Current Version | Previous Version | Graphics & Text | Print | Product List | Glossary On
Versions: 1 2 3 4 5 6 7 8 9 10 11 12 13 14 15 16 17 18 19 20 21 22 23 24 25 26 27 28 29 30 31 32 33 34 35 36 37 38 39 40 41 42 43 44 45 46 47 48 49 50
000
ASUS43 KBIS 282210
RWRND

NORTH DAKOTA REGIONAL WEATHER ROUNDUP
NATIONAL WEATHER SERVICE BISMARCK ND
500 PM CDT THU APR 28 2016

NOTE: "FAIR" INDICATES FEW OR NO CLOUDS BELOW 12,000 FEET WITH NO
SIGNIFICANT WEATHER AND/OR OBSTRUCTIONS TO VISIBILITY.


NDZ001>003-009>011-017-282300-
NORTHWEST NORTH DAKOTA

CITY           SKY/WX    TMP DP  RH WIND       PRES   REMARKS
WILLISTON      PTSUNNY   57  21  24 SE12      30.13F
MINOT          CLOUDY    59  12  15 E17       30.13S
MINOT AFB      CLOUDY    56  16  20 E12G20    30.12S
$$

NDZ018>021-031>035-040>046-282300-
SOUTHWEST NORTH DAKOTA

CITY           SKY/WX    TMP DP  RH WIND       PRES   REMARKS
BISMARCK       CLOUDY    55  21  26 E14       30.09S
DICKINSON      CLOUDY    50  26  39 E9        30.07F
GARRISON         N/A     55  16  21 NE13G21   30.11S
HETTINGER ARPT CLOUDY    46  32  58 E7        30.10S
$$

NDZ004>008-012>016-024-026-027-054-282300-
NORTHEAST NORTH DAKOTA

CITY           SKY/WX    TMP DP  RH WIND       PRES   REMARKS
GRAND FORKS    PTSUNNY   58  26  29 NE16      30.11S
GRND FRKS AFB  PTSUNNY   56  23  27 NE14      30.12S
DEVILS LAKE    CLOUDY    53  18  25 E15       30.14S
$$

NDZ022-023-025-028>030-036>039-047>053-282300-
SOUTHEAST NORTH DAKOTA

CITY           SKY/WX    TMP DP  RH WIND       PRES   REMARKS
FARGO          CLOUDY    60  21  22 NE13G23   30.05S
JAMESTOWN      CLOUDY    54  22  28 E17       30.08R
$$





USA.gov is the U.S. government's official web portal to all federal, state and local government web resources and services.